Regional Weather Roundup
Issued by NWS

Current Version | Previous Version | Text Only | Print | Product List | Glossary On
Versions: 1 2 3 4 5 6 7 8 9 10 11 12 13 14 15 16 17 18 19 20 21 22 23 24 25 26 27 28 29 30 31 32 33 34 35 36 37 38 39 40 41 42 43 44 45 46 47 48 49 50
000
ASUS46 KLOX 231804
RWRCA

SOUTHERN CALIFORNIA WEATHER ROUNDUP
NATIONAL WEATHER SERVICE OXNARD CALIFORNIA
1100 AM PDT WED AUG 23 2017

NOTE: "FAIR" INDICATES FEW OR NO CLOUDS BELOW 12,000 FEET WITH NO
SIGNIFICANT WEATHER AND/OR OBSTRUCTIONS TO VISIBILITY.

  -  STATIONS PRECEEDED BY AN ASTERISK (*) ARE NOT NWS OR FAA
     STATIONS AND ARE NOT SUBJECT TO NWS AND FAA QUALITY CONTROL.

CAZ041-042-087-231900-
LA AND ORANGE COUNTY COASTAL AREAS


CITY           SKY/WX    TMP DP  RH WIND       PRES   REMARKS
L.A. DOWNTOWN  CLOUDY    74  62  66 W7        29.98S
L.A. AIRPORT   CLOUDY    69  63  81 SW9       30.00R
LONG BEACH     CLOUDY    70  62  76 SE7       29.99S

CITY           SKY/WX    TMP DP  RH WIND       PRES   REMARKS
FULLERTON      CLOUDY    73  63  70 VRB6      29.98S
*GETTY CENTER    N/A     68  61  77 S7          N/A
HAWTHORNE      CLOUDY    70  62  76 SW8       30.00R
*LOS ALAMITOS  CLOUDY    71  62  74 S5        29.99S
*REDONDO BEACH   N/A     70  61  74 CALM      29.99S
SANTA ANA      CLOUDY    71  62  73 SW8       29.99S
STA MONICA APT CLOUDY    70  62  76 SW5       30.00S
TORRANCE       CLOUDY    70  61  73 NW9       29.99S
*UCLA            N/A     70  59  68 S3        29.97S

$$

CAZ547-548-048-231900-
LA COUNTY VALLEYS AND INLAND EMPIRE


CITY           SKY/WX    TMP DP  RH WIND       PRES   REMARKS
BURBANK        SUNNY     73  61  65 SE5       29.99S
VAN NUYS       SUNNY     74  61  63 E6        29.99S

CITY           SKY/WX    TMP DP  RH WIND       PRES   REMARKS
CORONA AIRPORT PTCLDY    77  63  61 W9        29.98F
*CHATSWORTH      N/A     74  62  66 E2        29.95S
CHINO          MOSUNNY   80  63  55 W9        29.99F
*CLAREMONT       N/A     74  61  63 SW7         N/A
MARCH AFB      SUNNY     80  63  56 NW7       29.99S
ONTARIO        MOSUNNY   77  61  57 SW7       29.98F
*PASADENA        N/A     75  66  73 E1          N/A
POMONA         SUNNY     73  61  64 W12       30.02
RIVERSIDE      MOSUNNY   76  62  62 NW5       29.98F
SAN BERNARDINO NOT AVBL
*SAN GABRIEL     N/A     73  63  72 SW6       30.04R
*SAN RAFAEL HI   N/A     73  62  68 SW6         N/A
*SAUGUS          N/A     80  59  48 SW3         N/A
*WHITEMAN AP   SUNNY     73  61  64 CALM      30.03S
*WOODLAND HILL   N/A    N/A N/A N/A N2          N/A

$$

CAZ054-055-231900-
LA AND SAN BERNARDINO COUNTY MOUNTAINS


CITY           SKY/WX    TMP DP  RH WIND       PRES   REMARKS
*ACTON           N/A     83  53  34 SW13        N/A
*BIG BEAR AIRP PTCLDY    72  41  33 E6        30.28S
*BIG PINES       N/A     74  41  29 CALM        N/A
*CHILAO          N/A     79  38  23 S12         N/A
SANDBERG       MOSUNNY   85  40  20 SE14      30.15S
*WARM SPRINGS    N/A     82  53  36 CALM        N/A

$$

CAZ028-029-059-060-099-231900-
ANTELOPE VALLEY AND SURROUNDING AREAS


CITY           SKY/WX    TMP DP  RH WIND       PRES   REMARKS
LANCASTER      SUNNY     90  40  17 CALM      30.00F
PALMDALE       SUNNY     90  42  18 E3        30.01F
*POPPY PARK      N/A     92  41  16 E3          N/A

CITY           SKY/WX    TMP DP  RH WIND       PRES   REMARKS
29 PALMS       MOSUNNY   95  41  15 CALM      30.02F HX  91
BARSTOW/DAGGET SUNNY     93  43  17 NW8       29.95F
BISHOP         SUNNY     85  42  22 N5        30.12F
CHINA LAKE     MOSUNNY   92  38  15 E5        29.99S
EDWARDS AFB    MOSUNNY   88  38  17 CALM      29.97F
MOJAVE         SUNNY     86  41  20 CALM      30.03S
NEEDLES        SUNNY    103  49  16 SE6       29.88F HX  99
VICTORVILLE    SUNNY     90  37  15 CALM      30.03F

$$

CAZ039-040-231900-
VENTURA AND SANTA BARBARA COUNTY COAST


CITY           SKY/WX    TMP DP  RH WIND       PRES   REMARKS
CAMARILLO      CLOUDY    69  61  75 S3        30.00R
NWS OXNARD       N/A     68  60  75 CALM      29.99S
OXNARD AIRPORT CLOUDY    65  61  87 W8        30.00S
*POINT MUGU    CLOUDY    69  61  75 VRB5      30.01R
SBA APT/GOLETA CLOUDY    65  61  87 S6        30.00S
*SANTA BARBARA   N/A     66  59  78 NW2       30.08S
*VENTURA         N/A     67  62  84 W1        29.96S

$$

CAZ044-045-231900-
VENTURA COUNTY VALLEYS


CITY           SKY/WX    TMP DP  RH WIND       PRES   REMARKS
*SIMI VALLEY     N/A     73  63  70 SW3       29.93F
*WESTLAKE VILL   N/A     74  62  65 CALM      29.96R
*OJAI            N/A     75  63  65 W5        29.92S
*FILLMORE        N/A     73  64  73 W1        30.01F

$$

CAZ053-231900-
VENTURA COUNTY MOUNTAINS


CITY           SKY/WX    TMP DP  RH WIND       PRES   REMARKS
*LOCKWOOD VLY    N/A     77  37  24 SE1         N/A
*ROSE VALLEY     N/A     82  41  23 SW3         N/A

$$

CAZ034-035-036-231900-
CENTRAL COAST AND SANTA YNEZ VALLEY


CITY           SKY/WX    TMP DP  RH WIND       PRES   REMARKS
SAN LUIS OBISP CLOUDY    63  57  81 NW7       30.02R
SANTA MARIA    CLOUDY    61  58  90 VRB5      30.03R

CITY           SKY/WX    TMP DP  RH WIND       PRES   REMARKS
*CAL POLY SLO    N/A     61  59  94 NW3         N/A
*LOMPOC        CLOUDY    62  58  86 NW8       30.03R
*PISMO BEACH     N/A     62  59  89 CALM      30.02S
*SANTA YNEZ    CLOUDY    63  55  77 W3        30.02S

$$

CAZ037-038-051-231900-
SAN LUIS OBISPO COUNTY INTERIOR AND CUYAMA VALLEY


CITY           SKY/WX    TMP DP  RH WIND       PRES   REMARKS
*CUYAMA          N/A     82  58  43 CALM      29.85F
PASO ROBLES    SUNNY     76  56  49 VRB3      29.98F

$$

CAZ032-033-061-231900-
SOUTHERN DESERTS


CITY           SKY/WX    TMP DP  RH WIND       PRES   REMARKS
BLYTHE         MOSUNNY   99  67  35 S10       29.85F HX 103
IMPERIAL       SUNNY    100  66  32 MISG      29.81F HX 104
PALM SPRINGS   SUNNY     98  54  22 CALM      29.87F HX  96
THERMAL        SUNNY     97  65  34 VRB3      29.81F HX  99

$$

ELSEWHERE ACROSS THE WESTERN UNITED STATES AND MEXICO


CITY           SKY/WX    TMP DP  RH WIND       PRES   REMARKS
DENVER, CO     MOSUNNY   84  44  24 NE9       30.18F
GRAND CANYON,  MOSUNNY   79  42  26 S14G28    30.34S
HONOLULU, HI   MOSUNNY   78  66  66 E12       30.03
KAHULUI, MAUI  MOSUNNY   82  71  69 NE16      30.03
LAKE TAHOE, CA SUNNY     69  47  45 E7        30.28F
LAS VEGAS, NV  MOSUNNY   95  46  18 E6        29.98F HX  91
MAMMOTH LAKES, FAIR      73  32  22 SE6       30.34F
MEXICO CITY, M PTSUNNY   70  50  49 SW5       30.31F
PHOENIX, AZ    MOSUNNY  100  58  24 VRB7      29.91F HX  99
PORTLAND, OR   PTSUNNY   66  58  75 CALM      30.04F
RENO, NV       MOSUNNY   75  47  36 CALM      30.17F
SALT LAKE CITY MOSUNNY   84  50  30 VRB5      30.15F
SAN DIEGO, CA  CLOUDY    69  63  81 NW6       30.01R
SAN FRANCISCO, MOSUNNY   64  56  75 NW9       29.99S
SAN JOSE, CA   SUNNY     70  58  65 VRB5      29.98F
SEATTLE, WA    CLOUDY    64  56  75 S7        30.05S
TIJUANA, MEX   CLOUDY    68  64  88 NW5       30.02  FOG

$$

STATION/POSITION TIME  TEMP    WIND        PRES    VSBY  WAVE
                       AIR SEA DIR/SP/G                  HT/PER
                 (UTC) (F)     (DEG/KT/KT) (MB)    (MI)  (FT/S)
POINT ARGUELLO B NOT AVBL
WEST SANTA BARBA 1750   61 62  320/ 12/ 16 1016.1R         4/ 9
POINT CONCEPTION NOT AVBL
EAST SANTA BARBA 1750   62 64  210/  8/ 12 1016.8R         1/ 5
SANTA MONICA BAY 1750      71  140/  4/  6 1015.7R         3/11



USA.gov is the U.S. government's official web portal to all federal, state and local government web resources and services.